Bangor, ME

8:19 AM EST on December 09, 2019 (GMT -0500)
Bangor International

Weather History for KBGR - October, 2019

Change the Weather History Date:

Sunday, October 27, 2019

  Actual Average Record
Temperature  
Mean Temperature 37 °F 43 °F  
Max Temperature 55 °F 53 °F 75 °F (1963)
Min Temperature 29 °F 34 °F 22 °F (1998)
Degree Days  
Heating Degree Days 28 22  
Month to date heating degree days 426 464  
Since 1 July heating degree days 640 736  
Cooling Degree Days 0 0  
Month to date cooling degree days 0 0  
Year to date cooling degree days 336 317  
Moisture  
Dew Point 37 °F    
Average Humidity 90    
Maximum Humidity 100    
Minimum Humidity 70    
Precipitation  
Precipitation 0.84 in 0.13 in 1.41 in (2003)
Month to date precipitation 5.41 3.66  
Year to date precipitation 44.43 33.74  
Snow  
Snow 0.00 in 0.00 in 0.30 in (1997)
Month to date snowfall 0.0 0.1  
Since 1 July snowfall 0.0 0.1  
Since 1 September snowfall 0.0 0.1  
Snow Depth 0.00 in    
Sea Level Pressure  
Sea Level Pressure 30.16 in    
Wind  
Wind Speed 2 mph ()    
Max Wind Speed 17 mph    
Max Gust Speed 20 mph    
Visibility 7.0 miles    
Events Rain    
T = Trace of Precipitation, MM = Missing Value Source: Averaged Metar Reports

Daily Weather History Graph

Daily Weather History Graph

Search for Another Location

Airport or City:

Astronomy

Oct. 27, 2019 Rise Set
Actual Time 7:06 AM EDT 5:31 PM EDT
Civil Twilight 6:36 AM EDT 6:01 PM EDT
Nautical Twilight 6:01 AM EDT 6:35 PM EDT
Astronomical Twilight 5:27 AM EDT 7:09 PM EDT
Moon 6:05 AM EDT (10/27) 5:42 PM EDT (10/27)
Length of Visible Light 11h 25m
Length of Day
10h 25m
Waning Crescent, 0% of the Moon is Illuminated
Oct 27
Waning Crescent
Oct 27
New
Nov 4
First Quarter
Nov 12
Full
Nov 19
Last Quarter

Hourly Weather History & Observations

Time (EDT) Temp. Windchill Dew Point Humidity Pressure Visibility Wind Dir Wind Speed Gust Speed Precip Events Conditions
12:53 AM 37.4 °F - 30.2 °F 75% - 10.0 mi Calm Calm - N/A   Partly Cloudy
1:53 AM 32.0 °F - 30.2 °F 93% - 10.0 mi Calm Calm - N/A   Partly Cloudy
2:53 AM 30.9 °F - 28.9 °F 92% 30.35 in 10.0 mi Calm Calm - N/A   Partly Cloudy
3:53 AM 30.0 °F - 28.9 °F 96% 30.33 in 10.0 mi Calm Calm - N/A   Scattered Clouds
4:53 AM 30.0 °F - 28.0 °F 92% 30.33 in 10.0 mi Calm Calm - N/A   Scattered Clouds
5:53 AM 30.9 °F - 28.9 °F 92% 30.35 in 10.0 mi Calm Calm - N/A   Scattered Clouds
6:53 AM 30.9 °F - 28.9 °F 92% 30.32 in 10.0 mi Calm Calm - N/A   Mostly Cloudy
7:53 AM 33.1 °F 28.7 °F 30.0 °F 89% 30.32 in 10.0 mi North 4.6 mph - N/A   Overcast
8:53 AM 36.0 °F 33.3 °F 32.0 °F 86% 30.32 in 10.0 mi NNE 3.5 mph - N/A   Overcast
9:53 AM 39.9 °F 37.8 °F 34.0 °F 79% 30.30 in 10.0 mi NNE 3.5 mph - N/A   Overcast
10:53 AM 42.1 °F 40.2 °F 34.0 °F 73% 30.30 in 10.0 mi NE 3.5 mph - N/A   Overcast
11:53 AM 43.0 °F 40.3 °F 35.1 °F 74% 30.27 in 10.0 mi ENE 4.6 mph - N/A   Overcast
12:53 PM 43.0 °F - 37.0 °F 80% 30.22 in 10.0 mi Calm Calm - 0.00 in   Overcast
1:53 PM 44.1 °F - 37.0 °F 76% 30.19 in 10.0 mi Calm Calm - 0.00 in Rain Light Rain
2:53 PM 44.1 °F 41.5 °F 39.9 °F 85% 30.16 in 10.0 mi East 4.6 mph - 0.04 in Rain Light Rain
3:06 PM 44.1 °F 40.1 °F 41.0 °F 89% 30.13 in 5.0 mi East 6.9 mph - 0.00 in Rain Light Rain
3:30 PM 44.1 °F 40.1 °F 41.0 °F 89% 30.12 in 5.0 mi East 6.9 mph - 0.02 in Rain Light Rain
3:53 PM 44.1 °F 40.1 °F 41.0 °F 89% 30.12 in 6.0 mi SE 6.9 mph - 0.04 in Rain Light Rain
4:31 PM 44.1 °F 41.5 °F 42.1 °F 93% 30.09 in 4.0 mi ESE 4.6 mph - 0.06 in Rain Rain
4:44 PM 44.1 °F 42.5 °F 42.1 °F 93% 30.09 in 4.0 mi SE 3.5 mph - 0.08 in Rain Rain
4:53 PM 44.1 °F 42.5 °F 42.1 °F 93% 30.09 in 5.0 mi ESE 3.5 mph - 0.08 in Rain Light Rain
5:53 PM 44.1 °F 41.5 °F 42.1 °F 93% 30.07 in 3.0 mi ESE 4.6 mph - 0.05 in Rain Light Rain
6:53 PM 44.1 °F 42.5 °F 42.1 °F 93% 30.07 in 4.0 mi Variable 3.5 mph - 0.16 in Rain Light Rain
7:09 PM 43.0 °F - 42.1 °F 97% 30.06 in 3.0 mi Calm Calm - 0.05 in Rain Heavy Rain
7:53 PM 43.0 °F 40.3 °F 42.1 °F 97% 30.06 in 4.0 mi NE 4.6 mph - 0.21 in Rain Heavy Rain
8:53 PM 43.0 °F 37.2 °F 42.1 °F 97% 30.01 in 4.0 mi ENE 10.4 mph - 0.09 in Rain Light Rain
9:24 PM 43.0 °F 36.8 °F 42.1 °F 97% 29.98 in 3.0 mi ENE 11.5 mph - 0.02 in Rain Light Rain
9:53 PM 43.0 °F 37.7 °F 42.1 °F 97% 29.98 in 3.0 mi ENE 9.2 mph - 0.03 in Rain Light Rain
10:53 PM 44.1 °F 42.5 °F 43.0 °F 96% 29.98 in 3.0 mi NE 3.5 mph - 0.04 in Rain Light Rain
11:24 PM 44.1 °F 41.5 °F 43.0 °F 96% 29.96 in 5.0 mi NE 4.6 mph - 0.03 in Rain Light Rain
11:53 PM 44.1 °F 40.8 °F 43.0 °F 96% 29.98 in 5.0 mi North 5.8 mph - 0.04 in Rain Light Rain